Temp
-4 -3 -3 -3 -3 -3 -3 -3 -2 -2 -2 -2 -2 -2 -2 -3 -3 -3 -3 -3 -3 -2 -2 -0 1 -1 1 1 1 0 1 2 2 1 1 2 2 5 6 8 6 5 6 5 4 5 6 13 10 11 8 9 9 9
-4 -4 -3 -3 -3 -3 -3 -2 -2 -2 -2 -2 -2 -2 -2 -2 -2 -3 -3 -3 -3 -3 -1 -1 -0 1 1 2 2 -0 -0 0 3 2 2 2 2 3 6 6 6 5 6 6 6 6 9 9 9 9 9 8 8 8
-4 -3 -3 -3 -3 -3 -2 -2 -2 -2 -2 -2 -2 -2 -2 -2 -3 -3 -3 -3 -3 -3 -2 -2 0 2 1 2 2 1 1 1 1 0 1 2 3 3 3 6 6 6 6 6 7 6 7 5 6 7 7 7 7 6
-4 -3 -3 -3 -2 -3 -2 -1 -1 -1 -1 -1 -1 -1 -1 -2 -3 -3 -3 -3 -2 -2 -2 -0 2 2 2 2 2 2 2 2 2 0 0 2 3 5 3 5 5 5 3 5 7 5 4 3 3 3 4 5 5 4
-3 -3 -3 -3 -2 -2 -1 -1 -1 -1 -1 -1 -1 -1 -2 -2 -3 -3 -3 -3 -2 -2 -2 -1 1 2 2 2 2 2 2 2 2 1 1 2 2 4 4 6 4 4 1 4 4 3 4 3 2 2 2 2 2 2
-3 -4 -3 -2 -2 -1 -0 -0 -0 -1 -0 -1 -1 -2 -2 -3 -3 -3 -3 -3 -2 -2 -2 -3 2 2 2 2 2 2 2 2 2 0 1 2 4 6 2 3 2 3 2 1 0 2 1 -0 -0 0 1 0 0 -0
-3 -3 -2 -1 -1 -1 -1 -0 -0 -0 -1 -1 -2 -2 -2 -2 -3 -3 -2 -1 -1 -2 -2 -1 -0 2 2 2 2 2 2 2 1 1 1 3 4 5 1 2 1 1 2 1 1 1 1 0 -1 -1 -1 -3 -3 -4
-2 -2 -1 -1 -1 -1 -1 -0 -1 -1 -1 -1 -2 -2 -2 -3 -3 -2 -1 -1 -1 -2 -1 -1 -1 0 2 1 1 1 1 0 0 1 1 2 4 4 2 -1 -1 -1 0 0 1 0 -0 -1 -2 -2 -3 -4 -5 -7
-1 -0 -1 -1 -1 -1 -1 -1 -1 -1 -1 -2 -2 -2 -3 -3 -3 -3 -1 -2 -2 -1 -2 -1 -1 1 2 1 0 1 1 1 1 1 1 3 -0 -1 -2 -2 -3 -3 -3 -3 -2 -2 -3 -4 -5 -5 -6 -6 -7 -8
-1 -1 -1 -1 -1 -1 -1 -1 -1 -1 -2 -2 -3 -3 -2 -2 -2 -1 -2 -1 -1 -1 -0 -1 3 0 1 2 2 1 1 1 1 1 4 1 -2 -3 -4 -5 -5 -5 -5 -5 -4 -5 -5 -6 -7 -8 -8 -9 -9 -9
-1 -1 -1 -1 -1 -1 -0 -1 -1 -2 -2 -2 -1 -1 -1 -2 -1 -1 -2 -1 -1 -1 -1 1 3 1 2 1 1 4 1 0 1 1 2 1 -1 -4 -6 -6 -6 -6 -6 -7 -7 -7 -7 -7 -8 -9 -10 -10 -10 -10
-0 -0 -1 -1 -1 -0 -0 -1 -2 -2 -1 -1 -1 -1 -1 -1 -1 -0 -1 -1 -1 0 2 0 3 3 2 2 2 2 2 2 2 1 1 -3 -4 -6 -7 -7 -8 -8 -8 -8 -8 -8 -9 -9 -10 -10 -11 -11 -11 -11
-0 -0 -0 -0 -0 -0 -0 -1 -1 -1 0 -1 -1 -1 -1 -1 0 1 -0 -1 -1 0 1 2 1 0 1 2 1 1 2 1 2 2 -2 -4 -6 -7 -8 -8 -9 -9 -9 -10 -10 -11 -11 -11 -11 -11 -11 -11 -11 -11
-0 -0 -0 -0 -1 -0 -1 -1 -1 -0 0 -0 -0 -3 -1 -1 -2 -2 -1 -1 -1 -0 1 1 -0 0 1 1 0 1 -0 -1 2 0 -5 -6 -8 -8 -9 -9 -9 -10 -11 -11 -12 -12 -11 -11 -11 -11 -11 -11 -11 -11
-0 -1 -1 -1 -1 -1 -1 -1 -1 1 -1 -2 -1 -2 -4 -3 -3 -3 -3 -2 -2 -1 -1 -0 -0 1 -1 -0 1 -0 -1 0 -3 -6 -7 -8 -8 -9 -10 -10 -11 -11 -11 -11 -11 -11 -11 -11 -11 -12 -12 -11 -11 -11
-1 -1 -2 -1 -1 -1 -1 -1 1 -0 -4 -4 -4 -3 -3 -3 -3 -3 -3 -3 -2 -1 -0 0 -0 0 -0 -0 -1 -3 -2 -5 -6 -9 -8 -8 -9 -10 -10 -10 -11 -11 -11 -11 -11 -11 -11 -11 -11 -11 -12 -12 -12 -12
-1 -1 -1 -2 -2 -1 -0 1 -1 -4 -4 -4 -5 -5 -4 -4 -4 -4 -4 -4 -3 -2 -1 -1 -2 -2 -3 -3 -4 -5 -7 -7 -7 -8 -9 -9 -10 -10 -10 -11 -11 -11 -11 -11 -11 -11 -11 -12 -12 -12 -12 -13 -13 -13
-0 -1 -1 -0 1 2 1 -3 -4 -4 -5 -5 -6 -5 -5 -5 -5 -5 -5 -4 -2 -2 -1 -4 -2 -5 -7 -5 -7 -7 -8 -8 -9 -9 -10 -10 -10 -10 -10 -10 -11 -11 -11 -11 -11 -11 -12 -12 -12 -12 -13 -13 -14 -14
1 0 -0 -1 0 0 -3 -3 -4 -5 -6 -6 -6 -6 -6 -6 -6 -6 -5 -5 -4 -3 -3 -3 -7 -8 -8 -7 -8 -9 -9 -9 -10 -10 -10 -10 -10 -10 -10 -10 -11 -11 -11 -11 -11 -11 -12 -12 -12 -12 -13 -13 -14 -14
-1 -1 -0 0 0 -2 -4 -4 -4 -5 -5 -6 -6 -6 -6 -6 -7 -7 -6 -6 -5 -7 -7 -8 -8 -8 -8 -8 -8 -8 -9 -9 -9 -10 -10 -10 -10 -10 -11 -11 -11 -11 -11 -12 -12 -13 -13 -13 -13 -13 -13 -14 -14 -15
-1 -2 -2 -2 -2 -3 -4 -5 -5 -5 -6 -6 -6 -6 -7 -7 -8 -8 -8 -7 -7 -8 -9 -8 -9 -9 -9 -9 -9 -9 -9 -9 -10 -10 -10 -10 -11 -11 -11 -11 -11 -11 -12 -12 -12 -13 -13 -14 -15 -15 -15 -15 -15 -16
-2 -2 -2 -2 -4 -4 -5 -5 -5 -5 -5 -5 -5 -5 -6 -6 -7 -8 -8 -9 -9 -10 -9 -9 -10 -9 -9 -9 -9 -9 -9 -9 -10 -10 -11 -11 -11 -11 -12 -12 -12 -12 -12 -13 -14 -14 -14 -15 -15 -16 -16 -17 -17 -17
-2 -2 -2 -2 -3 -4 -5 -5 -4 -4 -6 -5 -4 -5 -6 -6 -7 -7 -9 -9 -10 -10 -10 -10 -10 -10 -10 -10 -10 -10 -10 -10 -11 -11 -11 -11 -12 -12 -13 -13 -13 -14 -14 -14 -15 -15 -16 -16 -16 -16 -17 -17 -17 -17
-1 -2 -3 -3 -3 -5 -4 -4 -2 -3 -4 -5 -6 -6 -6 -6 -6 -7 -9 -9 -11 -11 -11 -11 -10 -11 -11 -11 -11 -11 -11 -11 -12 -12 -12 -12 -13 -13 -14 -14 -14 -14 -15 -15 -16 -16 -16 -17 -17 -17 -18 -17 -17 -17
-2 -6 -4 -5 -3 -4 -5 -4 -3 -4 -5 -5 -6 -7 -7 -6 -8 -9 -10 -9 -10 -10 -10 -10 -10 -10 -11 -12 -12 -11 -12 -12 -12 -12 -13 -13 -14 -14 -14 -14 -15 -15 -15 -16 -17 -17 -17 -17 -18 -18 -18 -18 -18 -18
-8 -7 -6 -6 -4 -4 -4 -6 -5 -6 -7 -7 -7 -5 -5 -7 -9 -10 -9 -9 -10 -9 -9 -9 -10 -11 -11 -12 -12 -12 -12 -13 -13 -12 -13 -13 -13 -14 -14 -15 -15 -15 -15 -16 -16 -17 -17 -18 -18 -18 -19 -19 -19 -19
-9 -8 -7 -6 -6 -4 -5 -3 -3 -7 -7 -7 -6 -8 -9 -11 -11 -9 -9 -9 -10 -10 -10 -10 -10 -10 -11 -12 -12 -12 -12 -13 -13 -13 -13 -13 -14 -14 -14 -15 -15 -16 -16 -16 -16 -17 -17 -18 -18 -19 -19 -20 -20 -20
-8 -8 -10 -8 -9 -8 -10 -10 -10 -10 -10 -7 -7 -12 -11 -12 -11 -10 -11 -11 -10 -10 -10 -11 -11 -11 -12 -12 -13 -13 -13 -14 -14 -14 -14 -14 -15 -15 -15 -15 -15 -16 -16 -17 -17 -18 -18 -18 -18 -19 -19 -19 -20 -20
-9 -10 -10 -13 -10 -11 -11 -11 -11 -11 -12 -10 -13 -14 -12 -12 -12 -12 -12 -11 -11 -11 -11 -12 -13 -13 -12 -13 -13 -14 -14 -15 -16 -15 -15 -16 -16 -16 -16 -16 -16 -16 -17 -17 -17 -18 -19 -19 -19 -19 -20 -20 -20 -20
-9 -9 -11 -11 -15 -13 -11 -11 -12 -13 -12 -12 -13 -13 -13 -13 -13 -13 -13 -13 -13 -13 -13 -13 -14 -14 -14 -14 -14 -14 -14 -14 -14 -14 -15 -16 -16 -16 -16 -16 -17 -17 -17 -17 -18 -18 -19 -19 -19 -20 -20 -21 -20 -20
-9 -9 -10 -11 -12 -12 -12 -12 -13 -13 -14 -14 -14 -14 -15 -15 -14 -14 -13 -13 -13 -14 -14 -14 -15 -15 -15 -15 -14 -14 -14 -14 -15 -15 -15 -15 -16 -16 -16 -17 -17 -17 -17 -17 -18 -18 -18 -18 -19 -19 -19 -19 -20 -20
-9 -10 -11 -14 -12 -12 -11 -11 -12 -13 -13 -13 -13 -13 -12 -13 -15 -15 -15 -14 -14 -15 -15 -15 -15 -14 -14 -14 -14 -14 -14 -15 -15 -16 -16 -16 -16 -16 -16 -16 -17 -17 -17 -18 -18 -18 -18 -18 -19 -19 -19 -20 -20 -20
-11 -11 -11 -11 -11 -11 -10 -10 -10 -10 -10 -11 -12 -12 -12 -13 -15 -15 -15 -15 -14 -15 -15 -14 -14 -14 -14 -14 -14 -15 -15 -15 -15 -16 -16 -16 -16 -16 -17 -17 -17 -18 -18 -18 -18 -18 -19 -19 -19 -19 -20 -20 -20 -20
Height
1397 1397 1397 1397 1397 1397 1397 1397 1397 1398 1399 1401 1404 1407 1411 1415 1421 1426 1428 1433 1436 1435 1434 1434 1433 1436 1436 1437 1434 1433 1431 1429 1431 1434 1436 1430 1431 1419 1413 1406 1411 1415 1417 1423 1429 1429 1421 1394 1397 1400 1407 1405 1405 1405
1388 1388 1388 1388 1387 1387 1386 1386 1386 1387 1388 1390 1392 1394 1397 1406 1413 1421 1424 1428 1433 1435 1432 1430 1429 1431 1433 1433 1434 1435 1435 1429 1430 1430 1429 1425 1425 1417 1410 1412 1410 1414 1410 1413 1411 1411 1399 1395 1392 1399 1402 1403 1407 1407
1379 1379 1379 1378 1377 1377 1376 1375 1374 1374 1375 1377 1380 1383 1385 1395 1406 1413 1419 1425 1431 1432 1429 1428 1422 1425 1428 1428 1430 1433 1432 1429 1430 1433 1433 1428 1423 1419 1416 1408 1404 1408 1410 1409 1404 1404 1401 1405 1411 1407 1407 1407 1410 1411
1370 1369 1368 1367 1367 1366 1365 1364 1364 1364 1364 1365 1367 1371 1377 1387 1400 1409 1415 1422 1426 1427 1426 1418 1418 1419 1420 1422 1425 1427 1429 1431 1432 1433 1432 1429 1420 1411 1412 1409 1408 1409 1411 1408 1402 1409 1408 1415 1420 1415 1417 1416 1414 1419
1360 1359 1358 1357 1357 1356 1357 1357 1357 1357 1358 1358 1360 1366 1373 1385 1398 1407 1414 1419 1422 1426 1421 1417 1415 1413 1414 1416 1418 1422 1426 1428 1430 1431 1429 1424 1419 1413 1408 1406 1413 1413 1416 1407 1411 1413 1409 1420 1422 1421 1423 1430 1423 1423
1350 1349 1349 1349 1348 1349 1350 1350 1350 1352 1354 1355 1360 1366 1374 1386 1397 1407 1414 1415 1418 1423 1425 1422 1413 1409 1410 1411 1414 1417 1421 1425 1427 1428 1426 1422 1416 1413 1414 1414 1421 1420 1419 1418 1418 1416 1416 1419 1423 1426 1428 1425 1424 1424
1340 1340 1340 1340 1341 1343 1343 1344 1345 1348 1351 1355 1361 1368 1378 1386 1393 1400 1405 1408 1412 1421 1422 1419 1409 1404 1404 1407 1411 1415 1418 1419 1422 1424 1424 1421 1416 1413 1413 1418 1425 1423 1423 1425 1425 1423 1422 1423 1429 1431 1430 1427 1427 1427
1329 1329 1331 1333 1335 1337 1338 1339 1343 1347 1351 1356 1364 1373 1382 1391 1399 1402 1403 1405 1408 1418 1422 1417 1409 1404 1401 1402 1406 1410 1414 1417 1419 1419 1420 1417 1413 1412 1417 1425 1424 1423 1422 1421 1423 1424 1426 1429 1431 1432 1431 1428 1428 1429
1321 1322 1323 1325 1327 1330 1334 1338 1343 1348 1355 1363 1371 1381 1389 1394 1397 1398 1403 1407 1410 1415 1414 1412 1407 1400 1401 1402 1403 1408 1410 1413 1415 1415 1414 1413 1414 1422 1427 1427 1426 1425 1425 1426 1428 1428 1430 1430 1431 1431 1430 1430 1430 1431
1314 1313 1315 1317 1321 1326 1330 1337 1343 1350 1359 1367 1375 1382 1385 1387 1395 1400 1406 1407 1408 1409 1407 1403 1400 1402 1403 1401 1402 1405 1407 1408 1411 1411 1408 1412 1426 1429 1430 1429 1429 1428 1427 1426 1426 1427 1429 1430 1430 1430 1430 1430 1429 1429
1308 1307 1308 1310 1316 1321 1329 1336 1343 1353 1361 1368 1374 1376 1379 1387 1395 1398 1399 1401 1404 1404 1399 1395 1396 1399 1401 1401 1402 1401 1403 1404 1407 1407 1408 1413 1424 1431 1432 1431 1431 1430 1430 1430 1429 1429 1429 1428 1428 1428 1428 1428 1428 1429
1303 1301 1302 1304 1312 1321 1329 1336 1344 1351 1359 1365 1367 1374 1381 1387 1389 1392 1395 1397 1397 1392 1388 1390 1391 1394 1399 1400 1400 1401 1402 1403 1403 1404 1407 1423 1431 1433 1433 1433 1433 1432 1432 1432 1431 1430 1430 1429 1430 1430 1430 1431 1431 1432
1304 1304 1306 1311 1318 1325 1331 1338 1348 1355 1361 1368 1373 1378 1380 1384 1384 1383 1388 1389 1389 1387 1388 1389 1393 1397 1399 1399 1401 1402 1401 1404 1402 1404 1419 1429 1433 1434 1435 1435 1435 1434 1434 1433 1433 1432 1432 1432 1432 1433 1433 1435 1436 1437
1312 1313 1317 1321 1326 1330 1336 1344 1352 1357 1364 1367 1372 1380 1380 1381 1386 1387 1385 1385 1388 1388 1388 1390 1394 1397 1399 1400 1401 1403 1405 1405 1402 1408 1429 1435 1436 1437 1437 1437 1436 1437 1436 1436 1436 1435 1435 1436 1436 1438 1438 1439 1440 1440
1317 1320 1324 1329 1332 1338 1344 1350 1355 1358 1362 1371 1375 1384 1388 1388 1388 1388 1388 1389 1390 1391 1391 1393 1396 1398 1401 1403 1402 1404 1407 1405 1417 1430 1433 1436 1437 1438 1438 1439 1439 1439 1440 1440 1440 1440 1441 1442 1442 1442 1443 1443 1443 1443
1328 1329 1333 1338 1341 1344 1349 1352 1355 1358 1368 1376 1383 1386 1388 1389 1390 1390 1390 1391 1391 1392 1393 1395 1397 1400 1403 1403 1406 1415 1411 1424 1430 1434 1436 1438 1439 1440 1441 1442 1442 1443 1443 1443 1444 1445 1446 1446 1446 1446 1447 1447 1446 1447
1336 1337 1339 1344 1348 1351 1354 1356 1358 1366 1376 1384 1391 1390 1390 1391 1393 1394 1394 1395 1394 1395 1395 1396 1402 1406 1406 1411 1419 1423 1429 1431 1433 1436 1438 1440 1441 1443 1443 1445 1446 1446 1447 1447 1449 1449 1450 1450 1450 1450 1449 1450 1450 1449
1339 1342 1345 1348 1350 1352 1353 1358 1367 1377 1387 1392 1394 1396 1395 1395 1397 1398 1397 1395 1395 1396 1399 1405 1406 1413 1422 1420 1429 1432 1433 1435 1437 1439 1441 1443 1444 1445 1446 1447 1449 1449 1450 1451 1452 1452 1453 1453 1453 1453 1453 1452 1451 1451
1342 1345 1347 1349 1351 1352 1360 1369 1373 1384 1394 1396 1398 1399 1399 1401 1402 1401 1400 1399 1398 1399 1403 1409 1417 1423 1427 1428 1430 1433 1435 1437 1439 1442 1443 1445 1446 1447 1449 1450 1451 1452 1453 1453 1454 1455 1455 1454 1454 1454 1454 1453 1453 1452
1345 1348 1350 1352 1353 1356 1367 1376 1380 1386 1395 1400 1401 1402 1403 1405 1405 1405 1403 1402 1402 1405 1413 1421 1427 1429 1429 1431 1432 1434 1436 1438 1440 1443 1446 1448 1449 1450 1451 1452 1453 1454 1454 1455 1455 1455 1455 1454 1454 1454 1453 1453 1452 1452
1350 1352 1353 1354 1356 1362 1372 1379 1385 1391 1396 1399 1403 1404 1407 1408 1407 1407 1407 1407 1408 1419 1426 1430 1431 1433 1433 1434 1436 1438 1440 1442 1444 1445 1447 1449 1451 1452 1453 1455 1455 1455 1456 1456 1455 1456 1455 1454 1454 1453 1452 1451 1451 1450
1352 1354 1355 1357 1362 1370 1377 1381 1385 1390 1395 1399 1402 1403 1407 1409 1411 1412 1414 1415 1426 1431 1431 1433 1434 1435 1436 1438 1440 1441 1443 1445 1447 1448 1450 1451 1453 1454 1454 1455 1455 1455 1456 1455 1455 1454 1454 1454 1453 1452 1451 1451 1451 1450
1354 1355 1358 1361 1368 1375 1386 1385 1386 1390 1396 1400 1401 1404 1409 1411 1414 1415 1421 1429 1434 1436 1435 1436 1437 1439 1440 1443 1444 1446 1447 1447 1449 1450 1452 1453 1453 1454 1454 1454 1455 1455 1455 1455 1454 1453 1453 1452 1452 1451 1451 1451 1451 1450
1355 1356 1361 1365 1370 1378 1382 1383 1385 1389 1395 1398 1401 1407 1409 1412 1416 1421 1429 1434 1437 1437 1438 1440 1441 1442 1445 1446 1448 1449 1450 1451 1452 1453 1453 1453 1454 1454 1454 1455 1455 1455 1455 1454 1454 1453 1452 1451 1451 1450 1450 1450 1450 1449
1357 1366 1366 1369 1372 1376 1380 1382 1384 1387 1393 1396 1401 1408 1409 1410 1416 1424 1432 1436 1438 1439 1440 1442 1444 1445 1446 1448 1450 1451 1452 1452 1452 1453 1454 1455 1455 1455 1455 1455 1455 1454 1453 1453 1452 1451 1451 1450 1449 1449 1449 1448 1448 1447
1366 1372 1372 1371 1373 1374 1378 1384 1386 1391 1395 1399 1403 1405 1407 1409 1419 1428 1430 1434 1437 1440 1441 1442 1443 1445 1447 1449 1449 1451 1451 1451 1452 1453 1453 1454 1454 1454 1454 1453 1452 1453 1452 1451 1451 1450 1449 1449 1448 1447 1446 1446 1445 1444
1373 1377 1377 1377 1376 1376 1380 1384 1386 1391 1396 1401 1402 1404 1408 1421 1429 1430 1432 1435 1436 1438 1440 1442 1443 1445 1447 1448 1449 1450 1451 1452 1452 1453 1453 1453 1453 1453 1453 1453 1452 1451 1450 1449 1449 1448 1447 1447 1446 1445 1445 1444 1443 1442
1378 1380 1382 1383 1383 1385 1387 1392 1396 1399 1401 1401 1403 1413 1417 1422 1427 1429 1431 1434 1436 1439 1441 1443 1445 1447 1448 1449 1450 1450 1451 1452 1452 1453 1452 1452 1452 1452 1452 1451 1450 1449 1448 1448 1446 1445 1445 1444 1443 1442 1442 1441 1440 1439
1383 1384 1386 1390 1391 1396 1400 1402 1404 1405 1405 1404 1408 1417 1422 1425 1427 1429 1433 1435 1438 1440 1442 1444 1446 1447 1447 1448 1449 1450 1451 1451 1452 1452 1452 1452 1451 1452 1450 1449 1448 1448 1446 1445 1444 1443 1443 1442 1441 1440 1440 1439 1438 1437
1386 1387 1391 1397 1402 1408 1407 1407 1407 1408 1406 1407 1412 1419 1423 1429 1434 1436 1437 1439 1440 1442 1443 1445 1446 1447 1448 1449 1450 1450 1451 1451 1451 1452 1451 1451 1451 1450 1449 1448 1447 1446 1445 1444 1443 1442 1441 1440 1440 1438 1437 1436 1435 1434
1386 1389 1394 1402 1409 1413 1412 1412 1412 1412 1413 1414 1420 1422 1426 1430 1435 1438 1440 1442 1444 1445 1445 1446 1447 1448 1448 1449 1449 1450 1451 1451 1451 1450 1450 1450 1449 1448 1447 1446 1445 1444 1443 1442 1441 1440 1440 1439 1438 1437 1435 1434 1432 1431
1389 1391 1396 1405 1412 1414 1414 1416 1417 1421 1423 1425 1427 1430 1432 1434 1438 1442 1443 1444 1445 1446 1446 1447 1447 1448 1449 1449 1450 1450 1450 1450 1450 1449 1448 1448 1447 1446 1445 1445 1444 1443 1442 1441 1440 1439 1438 1437 1436 1434 1433 1431 1429 1427
1394 1396 1398 1405 1411 1413 1414 1415 1420 1424 1426 1428 1429 1430 1431 1434 1438 1442 1443 1443 1444 1445 1446 1447 1448 1449 1449 1449 1450 1449 1449 1449 1448 1448 1447 1447 1446 1446 1445 1444 1443 1443 1442 1441 1440 1438 1436 1435 1433 1432 1430 1428 1425 1423
Wind_Speed
25 26 28 26 27 28 30 30 30 30 30 30 32 31 31 29 26 26 29 24 23 10 16 14 16 20 10 6 4 11 5 2 2 2 2 4 3 4 4 6 3 5 7 5 4 4 8 8 5 2 9 16 19 22
29 30 28 28 29 30 30 31 30 32 32 33 34 32 33 34 29 27 27 25 24 19 10 8 16 21 16 16 15 4 6 8 3 3 1 3 2 2 1 2 4 2 4 2 8 6 4 16 16 23 23 21 20 21
28 26 28 30 31 30 29 31 32 32 33 34 33 32 28 37 32 32 29 20 18 20 20 27 31 23 19 19 15 5 5 4 6 9 3 3 4 3 1 2 3 2 4 3 4 9 8 24 23 23 24 26 21 18
26 28 31 32 30 29 29 27 21 22 24 26 27 26 28 36 33 32 29 24 20 4 5 10 10 16 14 16 21 18 18 17 13 11 4 3 3 2 2 3 2 1 3 3 3 8 21 22 18 23 25 22 19 15
29 31 29 28 26 26 17 18 18 16 15 17 17 21 24 35 31 28 26 25 24 14 3 7 16 17 17 15 17 23 18 12 9 1 3 2 4 4 2 0 3 4 3 2 3 8 17 16 16 17 15 10 17 15
29 27 25 28 23 19 15 17 21 16 14 11 17 19 31 34 30 25 10 25 27 20 5 3 6 12 11 15 15 17 20 16 10 3 2 5 9 4 1 2 7 15 20 26 8 9 23 19 18 14 12 12 11 11
28 26 23 20 16 17 19 18 11 10 10 15 22 27 34 33 34 26 9 7 21 23 3 3 4 4 9 17 18 19 12 10 7 4 5 4 5 6 1 2 8 12 14 15 18 12 16 16 11 10 13 13 9 10
26 23 18 18 19 20 10 10 12 11 15 25 29 32 30 28 26 27 12 7 17 21 6 3 3 3 7 6 4 9 9 8 10 4 3 3 4 3 3 7 9 13 9 18 20 17 18 15 12 13 13 10 12 12
16 17 19 22 13 13 9 16 14 20 26 30 31 28 24 22 15 24 27 15 24 7 7 4 1 4 6 3 3 5 6 2 8 3 3 4 1 3 3 8 11 16 12 10 8 16 16 17 15 11 11 11 13 14
17 18 12 10 15 12 18 23 22 30 33 34 34 17 6 15 9 14 8 11 7 6 6 2 5 2 3 9 4 4 4 2 2 4 4 3 3 10 10 12 8 9 12 11 7 10 11 13 14 14 16 15 15 16
11 12 13 15 14 20 29 28 35 38 38 32 11 8 19 28 17 9 5 4 5 3 6 8 13 3 4 2 2 4 2 2 2 3 4 2 2 4 10 10 8 7 9 12 10 9 8 10 11 11 13 12 12 13
3 5 9 18 29 34 34 32 46 42 25 17 13 29 22 7 5 4 4 4 5 4 4 4 4 9 3 2 2 1 1 1 2 6 2 2 3 11 11 10 10 8 6 8 9 10 11 12 11 13 14 16 18 18
13 21 25 30 34 34 36 40 42 30 26 31 9 5 5 4 3 5 7 3 2 2 1 4 4 3 3 2 3 1 0 2 7 2 2 3 12 13 12 9 10 9 8 7 7 8 9 12 13 15 17 17 17 17
24 25 26 30 29 30 37 36 39 34 15 4 4 4 3 3 3 3 3 2 3 4 10 14 5 3 2 2 2 1 1 2 2 3 2 3 14 11 9 6 6 10 10 12 13 15 17 17 18 17 17 15 15 17
30 32 39 36 33 38 41 33 16 16 7 5 5 3 3 2 4 2 4 5 5 7 8 7 4 3 2 2 1 2 1 1 3 2 2 12 10 8 9 10 12 12 13 15 15 17 16 16 17 17 15 14 13 13
25 39 36 40 39 26 29 16 6 9 6 5 7 3 4 4 6 10 10 8 4 5 7 3 2 2 1 1 2 4 3 3 2 3 15 16 14 12 12 11 11 13 14 15 15 15 14 14 13 13 11 9 9 7
26 22 17 17 13 11 11 11 5 8 6 5 4 13 9 10 10 7 7 6 2 3 1 2 4 1 1 3 3 3 2 4 13 17 16 14 14 14 14 15 15 15 15 15 15 14 13 12 10 9 9 9 8 8
14 12 12 13 15 11 15 10 7 7 8 9 5 10 18 15 12 8 9 11 5 3 4 2 3 5 3 2 2 3 12 20 19 17 16 16 17 16 16 15 14 13 13 13 13 11 9 8 7 8 8 7 7 6
21 16 14 13 8 6 6 6 7 6 7 8 12 13 13 12 13 14 12 11 13 10 7 5 4 2 2 5 11 16 18 19 21 20 18 15 15 15 14 13 13 12 12 9 6 7 9 8 7 6 5 6 5 1
15 15 11 9 4 6 6 6 6 8 4 5 8 11 7 9 13 13 16 17 13 7 7 4 3 8 11 16 15 17 16 17 20 19 17 14 12 11 9 9 10 9 8 8 6 4 4 2 1 3 5 5 5 3
17 15 13 11 14 9 7 5 6 7 8 6 12 6 8 16 15 10 11 10 11 6 4 9 15 14 15 15 14 14 16 16 16 16 16 13 10 9 12 9 8 8 7 3 3 3 3 2 4 5 5 5 4 4
12 9 9 7 7 6 7 6 10 10 5 8 6 5 5 4 4 8 6 12 6 9 6 16 18 19 19 17 17 17 17 17 15 14 14 13 13 11 9 5 3 3 3 2 1 4 4 4 5 4 4 4 6 8
11 5 6 5 6 5 4 10 3 5 3 5 6 4 3 3 3 5 6 6 5 10 15 15 15 16 19 17 16 14 12 13 14 11 9 9 8 6 6 5 4 3 1 1 4 4 6 4 1 4 1 1 4 5
5 4 4 4 5 4 5 2 5 6 6 3 3 3 3 4 6 5 3 4 8 10 14 17 19 20 18 15 16 13 10 10 14 12 6 4 5 3 1 0 1 4 2 2 4 6 6 3 1 1 3 4 3 4
4 7 5 4 4 4 3 2 2 3 3 3 3 2 2 4 3 3 2 6 12 12 13 14 12 13 13 12 14 14 10 4 6 11 9 5 3 2 1 3 3 4 2 2 1 6 7 6 5 5 7 8 7 9
6 9 5 5 4 3 3 4 3 3 3 3 2 4 5 2 3 3 2 15 15 13 12 13 14 16 14 10 12 12 11 8 3 3 6 7 7 8 5 3 6 5 6 5 7 6 4 7 8 8 5 6 8 9
4 3 6 8 3 3 5 8 10 5 3 3 3 2 3 4 3 2 15 18 19 16 15 14 16 15 13 11 7 6 9 7 5 1 3 3 1 2 4 6 7 7 8 8 6 4 9 10 9 8 6 6 8 11
5 7 4 7 8 13 4 4 4 3 2 5 4 4 3 3 2 5 16 20 18 16 15 14 12 9 7 8 10 9 9 7 5 4 3 4 6 4 4 3 4 5 7 6 5 5 6 7 8 8 9 10 11 12
5 4 7 6 8 9 9 5 3 4 7 3 3 2 3 5 17 25 19 16 14 14 14 11 11 9 9 8 6 4 4 4 5 4 2 1 4 6 9 10 8 6 6 6 6 7 7 7 7 4 4 6 6 4
4 4 6 7 4 4 5 5 7 6 10 16 17 28 28 24 16 13 13 13 12 12 11 10 9 6 6 5 5 6 6 4 3 3 4 5 6 9 9 8 8 8 7 6 5 6 7 7 7 6 7 10 11 12
6 5 6 6 5 14 21 21 22 24 26 29 27 25 17 19 23 19 17 12 9 11 13 13 12 10 7 3 2 3 4 2 1 1 3 4 6 6 6 6 6 6 7 7 7 7 7 7 8 8 9 11 12 13
4 4 7 4 6 15 7 9 10 18 18 17 14 20 13 6 5 5 12 11 9 11 9 6 5 6 5 5 3 1 1 2 2 3 5 6 5 6 6 7 6 6 7 7 8 9 9 10 10 11 12 13 14 15
19 20 19 12 5 7 7 6 6 5 4 3 4 5 6 4 4 6 10 10 14 11 9 6 4 4 4 3 2 1 2 3 3 4 4 5 5 6 6 6 7 7 8 9 9 10 10 11 12 13 14 15 16 17
Wind_Direction
276 277 277 274 278 279 278 275 272 270 265 259 258 248 242 238 230 223 230 229 221 241 273 260 251 291 295 322 294 357 332 11 33 173 160 227 206 249 251 224 151 202 188 198 196 208 256 289 63 301 144 90 77 62
274 276 274 279 283 282 277 273 272 267 262 258 258 259 244 225 222 216 225 226 226 235 253 263 266 256 256 268 277 291 331 281 98 227 296 310 289 284 334 271 151 178 238 190 176 200 223 39 119 127 115 99 87 78
273 273 279 282 281 278 278 282 283 271 262 257 254 251 252 212 211 209 214 216 213 234 261 264 258 249 256 249 244 217 277 341 72 41 343 297 264 349 248 250 91 75 6 245 337 23 52 66 32 74 86 88 91 89
277 281 283 282 279 280 283 284 269 268 263 259 252 240 214 202 199 203 207 208 211 203 226 269 294 260 269 246 228 243 252 259 297 315 242 252 275 252 253 261 89 310 73 262 159 83 72 62 59 66 49 72 88 84
280 283 281 280 281 285 272 269 281 259 263 270 234 210 200 186 188 196 206 206 213 210 307 313 300 273 254 241 238 226 233 246 257 208 242 256 259 280 265 38 35 57 352 257 68 2 111 87 79 72 81 69 101 102
282 280 284 282 273 277 277 274 279 245 256 203 180 178 173 175 177 175 201 220 209 219 273 306 281 271 285 209 220 215 226 235 223 192 247 263 263 289 36 77 44 40 62 46 21 99 103 91 80 79 80 106 99 104
279 277 267 269 264 272 277 270 223 217 202 188 174 169 167 171 176 170 167 141 203 204 243 266 283 291 275 230 219 222 224 202 194 202 220 258 291 339 21 87 41 31 66 62 61 126 64 65 85 87 102 99 97 91
277 260 250 251 254 266 266 217 179 181 161 152 156 159 164 171 181 193 142 66 173 177 212 258 261 272 187 149 147 175 170 180 196 202 227 241 291 170 71 45 34 19 34 47 43 83 103 113 110 100 104 104 91 82
260 246 247 261 252 211 217 180 171 155 149 147 148 149 151 171 189 209 215 242 167 167 186 216 216 347 167 124 132 141 145 157 185 215 223 179 316 59 63 55 37 25 29 8 58 80 82 96 97 88 95 89 92 95
273 262 248 231 224 220 180 168 162 148 146 144 149 149 185 190 160 189 204 192 177 206 234 240 208 162 280 178 162 127 152 169 180 224 170 85 77 86 83 72 59 36 28 8 51 42 53 86 87 82 88 96 100 108
292 256 248 233 201 171 163 160 151 148 150 149 164 174 144 155 147 178 151 158 165 224 222 218 214 155 266 136 180 215 181 188 189 224 142 120 111 90 85 69 45 42 56 66 71 75 79 95 88 79 83 91 100 101
29 138 144 149 152 154 155 157 150 152 159 158 132 133 123 141 167 165 168 179 197 226 169 164 156 151 194 161 48 298 154 355 256 142 143 88 92 97 85 70 60 62 65 74 83 90 92 90 87 95 97 99 100 105
93 123 116 134 143 150 155 156 159 149 140 126 114 144 166 159 183 180 171 211 144 74 36 119 86 103 137 74 75 93 154 187 141 108 71 54 94 94 95 91 83 78 82 91 96 99 108 108 109 104 104 102 104 104
113 117 118 135 142 149 145 142 138 130 132 94 106 66 355 117 53 16 21 45 72 100 93 106 73 84 83 73 28 122 355 42 226 145 78 100 96 98 112 103 103 102 104 105 102 103 103 103 103 104 103 106 108 105
133 119 130 130 126 134 134 136 113 136 94 83 50 70 61 97 81 84 55 83 61 90 110 95 74 92 47 82 353 84 21 98 41 78 86 123 123 120 112 112 111 111 110 108 109 106 108 111 108 106 105 105 102 102
116 124 110 134 130 112 125 111 100 90 68 69 48 78 107 125 53 45 70 63 69 80 103 89 126 107 71 43 53 23 335 46 68 97 114 127 124 125 126 126 124 119 115 113 109 109 106 101 98 97 100 92 87 88
133 120 106 81 93 116 123 143 70 57 68 60 43 41 57 73 67 57 51 18 123 3 62 45 60 47 253 81 60 17 32 105 105 106 124 132 133 132 128 122 119 116 111 107 105 99 93 84 78 73 76 74 69 66
131 134 127 131 131 108 76 54 77 71 62 57 78 70 66 71 68 58 40 41 77 58 45 76 51 46 38 70 91 86 91 101 112 118 122 124 123 125 127 127 127 124 119 111 102 96 89 80 74 71 64 68 62 48
122 124 117 110 108 87 72 54 58 83 71 85 93 91 80 73 65 68 63 65 84 105 86 56 57 49 66 67 112 115 118 120 120 125 127 132 135 134 131 128 127 126 128 132 134 138 141 143 135 141 130 137 151 119
141 137 133 154 149 83 79 69 76 92 106 107 94 73 76 76 76 67 66 58 73 66 52 44 47 49 79 106 131 137 141 142 136 124 117 112 111 113 114 112 103 94 99 101 104 93 76 68 54 205 209 192 209 215
121 118 116 109 73 75 88 87 76 99 112 113 129 114 99 71 57 50 43 37 58 40 67 93 100 103 108 114 120 126 131 135 135 138 141 132 126 119 110 99 117 137 126 94 99 171 249 275 300 315 308 290 280 306
127 115 104 70 78 72 74 57 114 120 92 134 139 97 100 71 48 39 53 48 64 31 89 107 109 116 114 110 110 115 124 131 128 124 121 123 130 131 131 139 178 182 181 138 263 271 276 285 276 291 332 346 356 349
123 114 72 69 86 77 124 148 106 124 107 141 126 90 72 76 88 72 76 61 82 92 123 125 122 122 114 112 112 109 118 128 122 121 127 134 138 142 147 144 138 137 183 197 260 284 305 297 245 268 171 95 345 357
123 79 68 76 81 106 146 154 120 103 126 158 98 102 110 119 110 74 71 63 117 123 122 118 118 112 108 107 100 96 100 122 120 112 106 125 130 125 164 128 167 194 219 321 326 314 316 340 138 242 331 218 258 275
104 18 54 60 117 107 104 113 76 93 95 108 104 125 141 157 85 86 103 139 144 140 140 137 138 143 135 130 126 113 118 145 146 140 124 104 83 78 33 22 17 18 307 188 193 324 342 354 303 294 298 278 291 295
73 20 34 16 12 95 141 121 104 98 87 77 94 121 159 99 81 99 101 143 149 149 137 138 137 134 130 138 150 155 139 147 194 183 160 185 179 158 153 262 285 308 326 297 251 245 288 301 314 311 315 292 312 321
74 42 36 30 10 47 85 57 67 74 85 111 150 135 96 83 95 80 122 148 135 133 146 151 162 163 158 164 176 151 164 174 204 334 64 72 92 221 231 247 267 283 303 322 310 272 256 270 277 281 287 282 284 289
65 35 61 17 51 34 69 49 43 41 56 4 63 45 73 93 109 118 129 154 162 157 156 151 157 168 161 141 130 129 127 122 112 102 91 50 34 43 20 321 294 293 296 304 310 307 310 302 297 284 276 283 287 289
67 77 78 31 59 47 32 27 51 48 351 338 101 91 95 76 122 132 143 157 170 176 170 165 156 160 150 148 145 141 158 150 147 126 81 293 311 337 339 337 335 340 327 318 324 338 346 337 346 337 331 334 330 321
87 82 94 53 57 41 19 52 84 58 88 101 102 109 101 98 110 124 125 127 131 132 129 129 124 130 129 130 120 118 125 158 191 217 220 243 275 298 314 320 326 332 333 338 331 309 311 326 327 315 327 322 321 319
105 91 80 72 84 89 95 95 91 90 96 104 116 111 107 103 107 117 129 139 155 159 151 157 165 168 170 155 129 102 104 82 63 318 304 303 314 322 324 333 334 338 345 354 348 341 344 340 334 330 323 321 321 324
64 97 122 105 137 153 106 109 88 106 108 107 112 114 109 95 85 124 134 130 146 147 160 182 180 175 176 192 218 261 358 24 6 345 339 345 356 358 3 5 8 9 5 358 351 348 347 343 339 337 335 332 329 325
91 100 105 103 122 169 179 130 111 122 91 85 68 94 84 99 115 149 147 166 184 196 196 193 180 158 145 133 109 55 7 1 358 5 17 24 25 22 21 14 7 5 2 357 353 349 346 343 343 340 336 333 331 330